Lid_Strength_Index
6 7 8 8 10 11 12 13 13 13 14 14 14 14 14 14 14 14 15 16 16 16
6 8 9 10 11 12 14 14 14 15 14 14 14 14 14 15 16 16 16 17 17 18
7 8 10 12 14 14 14 15 15 14 15 15 15 16 16 17 16 17 18 18 18 19
11 12 13 14 15 15 16 15 16 16 16 16 16 17 16 17 18 19 19 19 19 19
13 14 16 17 17 16 17 17 17 16 16 16 17 17 18 18 19 19 20 19 20 20
15 16 17 17 17 17 16 17 17 16 16 17 17 18 19 19 19 19 19 19 19 19
15 16 16 16 17 17 16 16 16 16 17 18 18 19 19 19 20 20 19 19 18 19
15 15 17 16 17 17 17 17 17 18 18 18 19 19 19 19 20 20 19 19 18 17
15 15 16 17 17 18 18 18 19 19 19 19 18 17 17 18 19 19 19 18 16 16
15 16 18 18 18 19 19 19 19 19 18 18 18 16 16 17 18 18 17 17 16 16
18 17 18 18 19 19 18 19 19 19 18 18 17 15 16 16 17 17 16 16 17 17
17 18 18 19 19 19 19 19 19 18 18 18 17 15 15 15 16 16 17 17 17 17
18 18 19 19 19 19 18 18 18 18 18 17 16 14 14 15 16 17 17 17 16 15
19 19 19 19 19 19 19 19 19 19 19 18 16 15 14 14 16 16 17 17 18 18